Location: Caseificio
(44.7500°N, 11.0500°E)
Time: 07:06:03
(UTC+00:00)

Lacrosse 5 - Visible Passes

Search period start: 06 October 2022 00:00
Search period end: 16 October 2022 00:00
Orbit: 714 x 724 km, 57.0° (Epoch: 09 March)

Date Brightness Start Highest point End Pass type
(mag) Time Alt. Az. Time Alt. Az. Time Alt. Az.
08 Oct 5.1 04:48:35 10° SE 04:50:13 12° ESE 04:51:53 10° E visible
10 Oct 4.5 04:42:39 10° S 04:46:27 22° ESE 04:50:16 10° ENE visible
11 Oct 4.9 03:52:08 10° SE 03:53:42 11° ESE 03:55:16 10° E visible
12 Oct 3.4 04:38:09 10° SSW 04:42:47 38° SE 04:47:27 10° ENE visible
13 Oct 4.2 03:46:09 10° S 03:49:56 21° ESE 03:53:42 10° ENE visible
14 Oct 4.7 02:55:42 10° SE 02:57:10 11° ESE 02:58:39 10° E visible
14 Oct 2.2 04:34:16 10° SW 04:39:16 67° SE 04:44:18 10° NE visible
15 Oct 3.1 03:41:42 10° SSW 03:46:15 38° SE 03:50:55 10° ENE visible
